Winnemucca, NV

1:37 PM PDT on June 25, 2017 (GMT -0700)
Winnemucca Municipal

Weather History for KWMC - October, 2011

Change the Weather History Date:

Friday, October 28, 2011

  Actual Average Record
Temperature  
Mean Temperature 41 °F 44 °F  
Max Temperature 64 °F 61 °F 80 °F (1937)
Min Temperature 17 °F 26 °F 10 °F (1954)
Degree Days  
Heating Degree Days 24 21  
Month to date heating degree days 415 454  
Since 1 July heating degree days 477 658  
Cooling Degree Days 0 0  
Month to date cooling degree days 2 0  
Year to date cooling degree days 449 541  
Moisture  
Dew Point 6 °F    
Average Humidity 30    
Maximum Humidity 51    
Minimum Humidity 9    
Precipitation  
Precipitation T in 0.02 in 1.15 in (2016)
Month to date precipitation 0.66 0.59  
Year to date precipitation 8.68 6.39  
Snow  
Snow T in 0.00 in 4.10 in (2013)
Month to date snowfall T 0.4  
Since 1 July snowfall T 0.4  
Since 1 September snowfall T 0.4  
Snow Depth 0.00 in    
Sea Level Pressure  
Sea Level Pressure 30.24 in    
Wind  
Wind Speed 3 mph (SE)    
Max Wind Speed 10 mph    
Max Gust Speed 12 mph    
Visibility 10 miles    
Events      
T = Trace of Precipitation, MM = Missing Value Source: NWS Daily Summary

Daily Weather History Graph

Daily Weather History Graph

Search for Another Location

Airport or City:

Trip Planner

Search our weather history database for the weather conditions in past years. The results will help you decide how hot, cold, wet, or windy it might be!

Date:

Astronomy

Oct. 28, 2011 Rise Set
Actual Time 7:17 AM PDT 5:52 PM PDT
Civil Twilight 6:48 AM PDT 6:20 PM PDT
Nautical Twilight 6:16 AM PDT 6:52 PM PDT
Astronomical Twilight 5:44 AM PDT 7:24 PM PDT
Moon 9:39 AM PDT (10/28) 7:18 PM PDT (10/28)
Length of Visible Light 11h 31m
Length of Day
10h 35m
Waxing Crescent, 6% of the Moon is Illuminated
Oct 28
Waxing Crescent
Nov 2
First Quarter
Nov 10
Full
Nov 18
Last Quarter
Nov 24
New

Hourly Weather History & Observations

Time (PDT) Temp. Windchill Dew Point Humidity Pressure Visibility Wind Dir Wind Speed Gust Speed Precip Events Conditions
12:56 AM 21.0 °F 12.4 °F 5.0 °F 50% 30.26 in 10.0 mi SE 6.9 mph - N/A   Clear
1:56 AM 21.0 °F 12.4 °F 5.0 °F 50% 30.26 in 10.0 mi SE 6.9 mph - N/A   Clear
2:56 AM 24.1 °F 15.2 °F 3.9 °F 42% 30.26 in 10.0 mi SSE 8.1 mph - N/A   Clear
3:56 AM 21.9 °F - 3.0 °F 44% 30.25 in 10.0 mi Calm Calm - N/A   Clear
4:56 AM 19.0 °F 10.0 °F 5.0 °F 54% 30.26 in 10.0 mi SSE 6.9 mph - N/A   Clear
6:56 AM 19.9 °F - 5.0 °F 52% 30.32 in 10.0 mi Calm Calm - N/A   Clear
7:56 AM 19.0 °F 12.3 °F 3.9 °F 52% 30.35 in 10.0 mi SE 4.6 mph - N/A   Clear
8:56 AM 39.9 °F 35.1 °F 10.9 °F 31% 30.31 in 10.0 mi NE 6.9 mph - N/A   Clear
9:56 AM 46.0 °F 44.8 °F 10.0 °F 23% 30.28 in 10.0 mi NE 3.5 mph - N/A   Clear
10:56 AM 50.0 °F - 8.1 °F 18% 30.27 in 10.0 mi Calm Calm - N/A   Clear
11:56 AM 55.9 °F - 7.0 °F 14% 30.26 in 10.0 mi Calm Calm - N/A   Clear
12:56 PM 57.9 °F - 8.1 °F 14% 30.23 in 10.0 mi Calm Calm - N/A   Clear
1:56 PM 60.1 °F - 7.0 °F 12% 30.20 in 10.0 mi Calm Calm - N/A   Clear
2:56 PM 61.0 °F - 3.9 °F 10% 30.18 in 10.0 mi Calm Calm - N/A   Clear
3:56 PM 62.1 °F - 3.9 °F 10% 30.17 in 10.0 mi Calm Calm - N/A   Clear
5:56 PM 52.0 °F - 5.0 °F 15% 30.19 in 10.0 mi WSW 9.2 mph - N/A   Clear
6:56 PM 48.0 °F - 5.0 °F 17% 30.21 in 10.0 mi ESE 3.5 mph - N/A   Clear
7:56 PM 39.0 °F 36.8 °F 7.0 °F 27% 30.25 in 10.0 mi WNW 3.5 mph - N/A   Clear
8:56 PM 39.0 °F - 6.1 °F 26% 30.20 in 10.0 mi Calm Calm - N/A   Clear
9:56 PM 34.0 °F 29.8 °F 6.1 °F 31% 30.20 in 10.0 mi SSE 4.6 mph - N/A   Clear
10:56 PM 32.0 °F 27.5 °F 5.0 °F 32% 30.22 in 10.0 mi SSE 4.6 mph - 0.00 in   Clear
11:56 PM 30.0 °F 26.5 °F 3.9 °F 33% 30.21 in 10.0 mi ESE 3.5 mph - N/A   Clear